Location: Bernadets
(43.3537°N, 0.3167°E)
Time: 00:27:35
(UTC+00:00)

Cosmos 2251 Rocket - Pass Details

Date: 24 October 2021
Orbit: 765 x 791 km, 74.0° (Epoch: 27 November)

Event Time Altitude Azimuth Distance (km) Brightness Sun altitude
Rises 18:11:02 0° 344° (NNW) 3,250 6.9 -13.3°
Reaches altitude 10° 18:13:31 10° 351° (N) 2,317 6.1 -13.8°
Maximum altitude 18:18:34 46° 64° (ENE) 1,025 3.7 -14.7°
Enters shadow 18:23:28 11° 137° (SE) 2,259 5.6 -15.6°
